STARLINK-5201, 54076

Orbit data source: Space-Track

STARLINK-5201, 54076 is a payload satellite owned by SpaceX/Seattle (US) in LEO that was launched on Thu, 20 Oct 2022 UTC via an FALCON 9 launch vehicle from the Air Force Eastern Test Range (AFETR). Payload-class satellites include a variety of spacecraft equipped with specific instruments for various scientific and technological missions. These include communications satellites like Starlink; space stations such as the ISS; scientific satellites like the Hubble; Earth observation satellites from companies like Planet Labs, Umbra, and HawkEye 360; GPS; miniature CubeSats for education and research; and military/defense satellites.

Loading next visibility...
Identifier
54076, 2022-136AB
Orbit
LEO
Last TLE update
6 hours ago
Origin
Manufacturer
SpaceX/Seattle
Mission
Operational Commercial Communications
Bus & Motor
STARLINK, Unknown motor
Mass
305 kg wet, ~290 kg dry
Launch date (UTC)
2022-10-20 (3 years ago)
Launch vehicle
FALCON 9
Launch site
Air Force Eastern Test Range (AFETR)
Object type
Payload
Rocket body
Debris
Shape & HBR
Box + 1 Pan, 8.86 m
Radar Cross Section
13.562 m², Large (>1 m²)

Expand to show TLE details & history

TLE from 6 hours ago
0 STARLINK-5201
1 54076U 22136AB  25181.86309137 -.00000007  00000-0  17674-4 0  9997
2 54076  53.2183  34.8161 0001317  91.9180 268.1963 15.08842325148825
Epoch: 2025-06-30T20:42Z
TLE epoch observation values (Epoch: 2025-06-30T20:42:51.094Z)
Latitude
-0.00002°
Longitude
164.9364°
Altitude
540.663 km
Speed
7.593 km/s
True Right ascension
02h 19m 15s
True Declination
0° 00' 00"
Sunlit
Object was in daylight at epoch
Visualization orbit readout
Latitude
-7.38437°
Longitude
158.22483°
Altitude
542.073 km
Speed
7.592 km/s
Apparent Right ascension
02h 11m 53s
Apparent Declination
-22° 56' 53"
Sunlit
Object is in daylight
Visualization observer readout
Local Sidereal Time
14:39:11
Azimuth
20.833° NNE
Elevation
-72.075°
Doppler factor
1
Orbital elements
Apogee altitude
540.892 km
Perigee altitude
539.07 km
Semi-major axis
6,918.118 km
Eccentricity
0.00013
Inclination
53.2183°
RAAN
34.8161°
Arg. of periapsis
91.918°
True anomaly
Unknown
Mean anomaly
268.1963°
Eccentric anomaly
Unknown
Mean motion
3.77191 °/min
Orbital period
95.44 mins
BSTAR
0.000017674
Loading maneuver chart data...
Loading SW <> Apogee altitude chart data...
Loading historical data...
Loading historical data...
Loading historical data...
Loading historical data...
Loading historical data...
Loading historical data...
Loading historical data...

STARLINK-5201 Visibility forecast

Observer location: undefined°, undefined°

Span
Click to sort rows by Start time (UTC) header in descending order
Start Az.
Max El. time (UTC)
Max El. Az.
Max El.
End time (UTC)
End Az.
5 mins2025-07-01 15:56:57.634Z177.76° S2025-07-01 15:58:57.634Z140.765° SSE23.391°2025-07-01 16:01:57.634Z80.182° E
6 mins2025-07-01 17:35:57.634Z261.147° W2025-07-01 17:38:57.634Z344.705° N33.908°2025-07-01 17:41:57.634Z37.303° NE
5 mins2025-07-01 22:37:57.634Z343.426° N2025-07-01 22:39:57.634Z31.927° NE26.993°2025-07-01 22:42:57.634Z88.474° E
6 mins2025-07-02 00:16:57.634Z287.995° WNW2025-07-02 00:18:57.634Z241.174° WSW33.862°2025-07-02 00:22:57.634Z155.464° SSE
|